Regional Weather Roundup
Issued by NWS Northern Indiana

Home | Current Version | Previous Version | Graphics & Text | Print | Product List | Glossary On
Versions: 1 2 3 4 5 6 7 8 9 10 11 12 13 14 15 16 17 18 19 20 21 22 23 24 25 26 27 28 29 30 31 32 33 34 35 36 37 38 39 40 41 42 43 44 45 46 47 48 49 50
034
ASUS43 KIWX 022200
RWRIWX

KIWX WEATHER ROUNDUP
NATIONAL WEATHER SERVICE NORTHERN INDIANA
600 PM EDT MON MAY 02 2016

NOTE: "FAIR" INDICATES FEW OR NO CLOUDS BELOW 12,000 FEET WITH NO
SIGNIFICANT WEATHER AND/OR OBSTRUCTIONS TO VISIBILITY.

* THESE STATIONS ARE NOT UNDER NWS QUALITY CONTROL. THEY ALSO MAY NOT
  REPORT WEATHER SUCH AS PRECIPITATION OR FOG.

INZ001>027-022300-
NORTHERN INDIANA

CITY           SKY/WX    TMP DP  RH WIND       PRES   REMARKS
GARY*          PTSUNNY   52  45  76 N10       30.03F
VALPARAISO     CLOUDY    50  41  71 N7        30.01F
SOUTH BEND     CLOUDY    52  44  74 N9        30.01F
ELKHART*       CLOUDY    52  48  87 NE7       30.00F
GOSHEN         CLOUDY    51  46  83 NE7       29.99F
ANGOLA*        CLOUDY    48  39  71 NE5       29.99S
FORT WAYNE     CLOUDY    52  47  83 E8        29.99S

$$
INZ028>050-022300-
CENTRAL INDIANA

CITY           SKY/WX    TMP DP  RH WIND       PRES   REMARKS
LAFAYETTE      CLOUDY    53  47  79 NE5       29.98S
KOKOMO*        CLOUDY    54  46  76 NE8       29.97R
MUNCIE*        CLOUDY    55  50  83 NE8       29.95F
INDIANAPOLIS   CLOUDY    54  51  90 W8        29.94F

$$
MIZ043>046-050>051-056>058-064>065-071>073-077>080-022300-
SOUTHWEST LOWER MICHIGAN

CITY           SKY/WX    TMP DP  RH WIND       PRES   REMARKS
BATTLE CREEK   CLOUDY    53  43  68 NE9       30.01F
BENTON HARBOR  CLOUDY    50  37  61 VRB3      30.02F
COLDWATER*     CLOUDY    50  47  88 NE5       30.00F
HILLSDALE*     CLOUDY    50  46  86 NE6       30.00S
HOLLAND        CLOUDY    52  40  63 W6        30.02F
GRAND RAPIDS   CLOUDY    56  42  59 E5        30.01F
KALAMAZOO      CLOUDY    54  42  64 NE5       30.01F
STURGIS*       CLOUDY    49  46  90 NE5       29.99F
THREE RIVERS*  CLOUDY    52  46  80 CALM      30.01S

$$
OHZ001>008-015>018-024>025-022300-
NORTHWEST OHIO

CITY           SKY/WX    TMP DP  RH WIND       PRES   REMARKS
DEFIANCE       CLOUDY    51  47  86 N7        29.99F
FINDLAY        CLOUDY    54  43  66 NE7       29.96F
TOLEDO EXPRESS CLOUDY    52  45  77 N9        29.98F
TOLEDO METCALF CLOUDY    53  45  74 NE7       30.00S
LIMA           CLOUDY    52  47  83 NE7       29.96F

$$
AND FOR LAKE MICHIGAN COASTAL AND OPEN LAKE BUOY OBSERVATIONS

STATION/POSITION TEMP    WIND        PRES    VSBY  WAVE
                 AIR SEA DIR/SP/G                  HT/PER
                 (F)     (DEG/KT/KT) (MB)    (MI)  (FT/S)
CALUMET HARBOR    48     340/ 11/ 13 1016.6F
MICHIGAN CITY     44      10/  8/  9   N/A
BURNS HARBOR      46      50/ 10/ 13 1017.3F
SAINT JOSEPH      47     350/  7/ 10 1016.9F
SOUTH LAKE BUOY   42 41  340/  4/  6 1017.5          1/ 3
4 MI NW BRIDGMAN  46 48                N/A           2/ 3

$$
&&




USA.gov is the U.S. government's official web portal to all federal, state and local government web resources and services.